SCP
0 0 0 0 0 0 0 0 0 0 0 0 0 0 0 0 0 0 0 0 0 0 0 0 0 0 0 0 0 0 0 0 0 0 0 0 0 0 0 0 0 0 0 0
0 0 0 0 0 0 0 0 0 0 0 0 0 0 0 0 0 0 0 0 0 0 0 0 0 0 0 0 0 0 0 0 0 0 0 0 0 0 0 0 0 0 0 0
0 0 0 0 0 0 0 0 0 0 0 -0 -0 -0 -0 0 0 0 0 0 0 0 0 0 0 0 0 0 0 0 0 0 0 0 0 0 0 0 0 0 0 0 0 0
0 0 0 0 0 0 -0 0 0 0 0 0 -0 -0 0 0 0 0 0 0 0 0 0 0 0 0 0 0 0 0 0 0 0 0 0 0 0 0 0 0 0 0 0 0
0 0 0 0 0 0 0 0 0 0 0 0 -0 -0 0 0 0 0 0 0 0 0 0 0 0 0 0 0 0 0 0 0 0 0 0 0 0 0 0 0 0 0 0 0
0 0 0 0 0 0 0 0 0 0 0 0 0 0 0 0 0 0 0 0 0 0 0 0 0 0 0 0 0 0 0 0 0 0 0 0 0 0 0 0 0 0 0 0
0 0 0 0 0 0 0 0 0 0 0 0 0 0 0 0 0 0 0 0 0 0 0 0 0 0 0 0 0 -0 -0 -0 -0 -0 0 0 0 0 0 0 0 0 0 0
0 0 0 0 -0 0 0 0 0 0 0 0 0 0 0 0 0 0 0 0 0 0 0 0 0 0 0 0 0 -0 -0 -0 -0 -0 0 0 0 0 0 0 0 0 0 0
0 0 0 0 -0 0 0 0 0 0 0 0 0 0 0 0 0 0 0 0 0 0 0 0 0 0 0 0 0 -0 -0 -0 0 0 0 0 0 0 0 0 0 0 0 0
0 0 0 -0 -0 -0 0 -0 -0 0 0 0 0 0 0 0 0 0 0 0 0 0 0 0 0 0 0 0 0 0 -0 0 0 0 0 0 0 0 0 0 0 0 0 0
0 0 0 -0 -0 0 0 -0 -0 0 0 0 0 0 0 0 0 0 0 0 0 0 0 0 0 0 0 0 0 0 0 0 0 0 0 0 0 0 0 0 0 0 0 0
0 0 0 0 0 0 0 0 -0 0 0 0 0 0 0 0 0 0 0 0 0 0 0 0 0 0 0 0 0 0 0 0 0 0 0 0 0 0 0 0 0 0 0 0
0 0 0 0 0 0 0 0 0 0 0 0 0 0 0 0 0 0 0 0 0 0 0 0 0 0 0 0 0 0 0 0 0 0 0 0 0 0 0 0 0 0 0 0
0 0 0 0 0 0 0 0 0 0 0 0 0 0 0 0 0 0 0 0 0 0 0 0 0 0 0 0 0 0 0 0 0 0 0 0 0 0 0 0 0 0 0 0
0 0 0 0 0 0 0 0 0 0 0 0 0 0 0 0 0 0 0 0 0 0 0 0 0 0 0 0 0 0 0 0 0 0 0 0 0 0 0 0 0 0 0 0
0 0 0 0 0 0 0 0 0 0 0 0 0 0 0 0 0 0 0 0 0 0 0 0 0 0 0 0 0 0 0 0 0 0 0 0 0 0 0 0 0 0 0 0
0 0 0 0 0 0 0 0 0 0 0 0 0 0 0 0 0 0 0 0 0 0 0 0 0 0 0 0 0 0 0 0 0 0 0 0 0 0 0 0 0 0 0 0
0 0 0 0 0 0 0 0 0 0 0 0 0 0 0 0 0 0 0 0 0 0 0 0 0 0 0 0 0 0 0 0 0 0 0 0 0 0 0 0 0 0 0 0
0 0 0 0 0 0 0 0 0 0 0 0 0 0 0 0 0 0 0 0 0 0 0 0 0 0 0 0 0 0 0 0 0 0 0 0 0 0 0 0 0 0 0 0
0 0 0 0 0 0 0 0 0 0 0 0 0 0 0 0 0 0 0 0 0 0 0 0 0 0 0 0 0 0 0 0 0 0 0 0 0 0 0 0 0 0 0 0
0 0 0 0 0 0 0 0 0 0 0 0 0 0 0 0 0 0 0 0 0 0 0 0 0 0 0 0 0 0 0 0 0 0 0 0 0 0 0 0 0 0 0 0
0 0 0 0 0 0 0 0 0 0 0 0 0 0 0 0 0 0 0 0 0 0 0 0 0 0 0 0 0 0 0 0 0 0 0 0 0 0 0 0 0 0 0 0
0 0 0 0 0 0 0 0 0 0 0 0 0 0 0 0 0 0 0 0 0 0 0 0 0 0 0 0 0 0 0 0 0 0 0 0 0 0 0 0 0 0 0 0
0 0 0 0 0 0 0 0 0 0 0 0 0 0 0 0 0 0 0 0 0 0 0 0 0 0 0 0 0 0 0 0 0 0 0 0 0 0 0 0 0 0 0 0
0 0 0 0 0 0 0 0 0 0 0 0 0 0 0 0 0 0 0 0 0 0 0 0 0 0 0 0 0 0 0 0 0 0 0 0 0 0 0 0 0 0 0 0
0 0 0 0 0 0 0 0 0 0 0 0 0 0 0 0 0 0 0 0 0 0 0 0 0 0 0 0 0 0 0 0 0 0 0 0 0 0 0 0 0 0 0 0
0 0 0 0 0 0 0 0 0 0 0 0 0 0 0 0 0 0 0 0 0 0 0 -0 -0 -0 -0 0 0 0 0 0 0 0 0 0 0 0 0 0 0 0 0 0
Wind_Speed
8 9 7 9 9 7 9 9 9 9 10 11 6 4 2 2 2 3 2 2 2 2 2 2 2 2 1 1 1 1 1 2 3 3 2 2 2 2 2 3 4 4 4 4
8 8 7 10 11 10 10 10 12 13 15 9 4 1 2 2 2 2 3 4 4 4 3 3 3 2 2 2 2 1 1 2 2 2 2 2 3 3 3 3 3 3 4 4
6 4 5 9 9 9 7 7 7 10 9 3 3 3 3 3 2 3 4 4 4 4 4 3 3 3 3 2 2 1 2 2 2 2 2 3 3 3 4 4 3 4 4 4
4 3 8 7 1 4 5 6 5 5 4 3 3 4 3 2 2 3 3 4 4 4 4 4 3 3 2 2 2 2 2 2 2 2 3 2 3 4 4 4 4 4 4 4
3 5 9 5 1 1 2 5 4 5 5 4 3 3 2 1 1 2 3 3 3 4 3 3 3 2 2 2 1 2 2 2 3 2 2 3 3 3 3 3 4 4 4 4
4 5 7 4 0 0 1 5 2 2 3 4 3 3 3 2 3 3 3 3 3 3 3 3 2 1 1 2 2 2 3 3 3 3 3 3 4 4 3 3 4 4 4 4
7 7 8 3 1 1 1 5 1 0 2 2 2 4 3 3 3 3 2 3 3 3 3 3 2 1 2 2 3 3 2 2 3 3 3 4 3 3 3 3 3 3 3 3
5 7 9 0 3 3 5 2 2 2 2 2 3 3 3 3 3 3 3 3 3 2 3 3 2 2 2 3 3 2 2 3 3 3 3 3 2 2 2 2 3 3 3 3
6 7 2 4 4 3 1 2 2 2 3 2 3 3 3 3 3 3 3 3 3 2 3 3 3 2 3 3 2 2 2 3 3 3 2 2 2 2 2 2 2 2 2 2
5 6 4 3 2 2 2 2 2 2 2 2 3 4 3 3 3 3 3 3 3 3 3 4 4 3 3 3 2 1 2 2 2 2 2 2 2 2 2 2 2 2 2 2
6 5 4 3 2 2 2 2 3 2 2 3 3 4 3 3 3 3 3 3 2 2 3 4 4 4 4 3 2 2 2 2 2 2 1 1 2 2 2 2 3 3 3 3
7 3 3 4 2 2 2 3 3 3 3 3 3 4 4 3 3 3 3 3 3 3 4 4 4 4 4 3 2 2 2 2 2 2 1 1 1 1 2 3 4 5 5 5
5 3 3 3 2 2 2 3 3 2 3 4 3 3 3 3 3 3 3 3 4 4 4 4 4 4 4 3 3 2 2 3 2 2 1 1 1 1 1 2 3 4 4 4
3 2 3 2 2 3 2 3 2 2 2 2 3 3 3 3 3 3 3 3 3 3 4 4 3 4 4 3 3 3 3 3 3 2 2 1 1 1 1 1 1 1 2 2
2 2 3 3 3 3 2 2 2 3 3 3 3 3 3 3 3 4 3 3 3 3 3 3 4 5 4 3 3 3 2 2 2 2 2 2 1 1 1 1 1 1 1 1
4 3 2 2 3 3 2 2 3 4 3 3 3 3 3 3 3 3 3 2 2 3 4 4 4 4 4 3 3 2 2 4 3 2 1 1 1 1 1 1 1 1 1 1
1 3 2 3 4 4 3 3 3 4 3 3 3 3 3 3 3 3 3 2 2 3 3 3 4 4 3 2 2 2 2 2 4 2 1 1 1 1 1 1 1 1 1 1
3 4 4 4 4 4 4 3 3 3 3 3 2 2 2 2 3 4 4 3 3 3 3 4 4 3 3 2 2 2 2 1 1 1 1 1 1 1 1 0 1 1 1 2
2 2 2 2 2 2 3 3 2 2 2 1 1 2 2 2 3 3 3 3 3 3 4 4 5 4 3 3 3 1 1 1 1 1 1 2 2 1 1 1 1 1 1 1
1 2 1 2 1 1 2 2 1 1 1 1 1 2 2 3 2 2 2 2 2 3 3 4 3 3 3 3 3 1 1 1 1 1 1 1 1 1 1 1 1 1 1 1
2 2 1 2 2 2 1 1 1 1 1 1 1 1 2 3 2 2 2 3 3 3 3 4 3 2 2 2 3 1 1 1 1 1 1 1 1 1 1 1 1 1 1 1
1 1 1 1 1 2 1 1 1 1 1 1 1 1 2 2 2 2 2 2 3 5 3 2 2 3 4 3 1 1 1 1 1 1 1 1 1 1 1 1 1 1 1 1
1 0 1 1 1 1 1 1 0 0 1 1 1 1 2 2 2 2 3 2 2 5 3 2 4 5 5 2 1 1 1 1 1 1 1 1 1 1 1 1 1 1 1 1
0 0 0 1 1 1 1 1 1 1 1 1 1 1 1 2 2 2 2 4 6 5 2 4 5 5 4 2 1 1 1 1 1 1 1 1 1 1 1 1 1 1 1 1
0 0 0 0 0 1 1 1 1 1 1 1 2 1 1 1 2 2 2 3 5 5 3 4 5 5 2 1 1 1 1 1 1 1 1 1 1 1 1 1 1 1 1 1
0 0 1 1 1 1 1 1 1 1 1 2 2 2 2 2 2 2 2 2 3 4 3 2 3 3 2 1 1 1 1 2 2 1 1 1 1 1 2 2 2 2 2 2
0 0 0 0 1 0 1 1 1 1 1 1 2 2 2 2 2 2 2 2 2 2 2 2 2 2 2 2 2 2 2 2 1 2 1 1 1 2 2 2 2 2 2 2
Wind_Direction
267 278 280 267 265 243 226 232 242 260 270 279 280 274 284 310 329 328 330 325 312 308 311 311 309 305 297 281 274 260 249 242 233 234 232 224 213 219 222 217 216 206 204 209
276 265 266 270 263 249 242 240 246 262 271 273 280 286 290 296 296 298 303 305 307 307 307 303 296 291 291 286 281 270 256 260 257 239 231 226 223 216 221 224 219 212 209 209
273 293 308 271 246 225 223 221 221 243 255 301 317 311 295 284 280 277 291 304 308 309 302 297 296 290 281 279 284 268 262 265 262 253 248 235 230 219 221 222 218 218 216 210
279 303 252 248 188 188 221 247 237 250 272 301 298 303 299 279 278 295 311 313 314 314 312 307 306 302 297 293 275 263 264 266 265 255 250 248 232 225 226 220 220 223 222 217
250 262 270 267 249 179 214 273 246 243 274 297 318 322 304 341 7 322 311 311 307 306 308 314 313 310 312 302 282 264 263 267 268 261 256 250 246 242 233 225 225 225 226 220
237 251 256 263 189 79 107 278 271 217 270 299 338 303 283 351 352 340 340 331 322 321 327 321 315 325 319 293 266 262 267 274 272 262 254 253 253 253 248 237 229 225 230 222
235 247 261 281 254 92 196 263 313 274 284 300 260 246 287 333 334 337 336 329 329 330 332 324 327 335 308 297 271 274 283 279 271 263 256 253 252 248 245 243 229 221 229 234
212 228 255 189 122 184 235 300 327 317 312 291 278 293 313 316 313 325 338 338 342 339 331 333 342 340 312 292 284 284 276 275 272 266 265 266 249 250 240 223 225 220 220 236
204 221 244 161 186 224 288 294 303 310 305 293 285 288 296 301 304 315 325 326 336 334 328 331 338 329 304 303 296 275 270 270 272 275 273 273 258 249 238 213 211 232 219 228
252 258 256 240 252 277 273 272 296 310 312 307 289 296 298 297 301 309 315 318 329 331 325 322 328 324 309 314 327 314 291 290 289 281 277 273 264 254 238 219 213 221 231 233
253 271 295 275 263 287 314 324 316 315 315 307 299 297 294 295 297 304 312 316 318 310 308 311 319 319 319 322 329 320 309 308 310 299 285 280 273 251 250 239 226 226 223 221
242 244 238 267 307 329 306 303 304 306 312 317 307 302 303 298 299 307 309 313 312 309 308 310 317 318 320 320 319 310 309 311 302 297 291 283 284 307 286 269 269 262 255 249
252 282 257 274 316 350 308 303 304 294 289 302 310 307 307 303 304 306 304 303 300 300 303 309 314 314 317 322 321 311 296 298 293 293 290 282 279 274 307 332 313 288 273 266
271 294 282 290 305 326 315 312 323 326 320 314 313 319 316 309 306 301 297 299 304 306 305 307 310 311 315 318 317 311 301 299 304 299 294 289 281 281 283 288 306 321 314 298
278 260 252 286 315 325 337 343 336 321 324 326 326 320 314 309 303 302 303 310 316 310 308 312 312 311 317 317 316 311 306 302 303 306 302 295 291 287 281 274 277 305 341 329
286 283 273 283 293 307 325 320 302 299 307 309 313 311 308 303 300 305 310 317 313 307 311 312 308 309 315 318 320 314 308 310 315 317 318 320 316 303 284 272 277 283 280 280
280 278 283 290 289 294 291 282 278 285 294 295 298 307 314 317 319 320 322 316 298 292 300 302 306 313 319 324 318 309 311 316 323 330 330 319 311 303 284 269 273 284 293 281
235 247 251 257 265 279 290 291 286 287 284 283 299 310 310 306 304 308 315 319 319 316 317 313 316 324 328 331 325 317 321 319 324 329 328 321 317 318 325 323 321 326 342 338
268 268 278 282 273 268 276 283 285 284 287 289 294 289 287 289 293 301 313 322 323 320 321 322 331 340 334 328 332 325 320 326 335 336 329 317 330 342 341 340 345 340 341 347
308 304 308 315 323 293 289 301 307 307 306 304 307 311 311 307 305 304 307 302 295 292 307 322 324 325 326 325 334 330 326 333 345 341 334 327 331 341 344 344 346 344 344 339
299 314 326 329 327 323 310 308 302 298 310 313 273 283 296 306 312 313 316 312 312 313 325 330 334 322 318 325 331 345 350 349 341 327 327 330 334 333 330 329 329 327 330 328
286 301 313 327 331 324 327 331 310 306 328 326 315 311 312 313 316 310 291 284 310 327 339 323 323 329 335 340 355 6 6 4 356 353 345 337 331 327 324 323 314 312 316 313
275 295 313 315 304 316 344 349 336 307 287 286 289 289 285 289 300 309 311 311 314 326 335 327 330 335 343 6 7 3 3 1 351 341 333 328 320 316 318 320 316 311 304 303
285 301 306 332 25 13 339 333 340 318 291 289 285 275 279 302 307 296 295 317 326 328 330 329 337 339 349 14 1 352 344 337 331 325 324 327 325 319 316 315 311 310 311 311
313 342 49 43 350 302 308 334 347 342 336 332 333 328 314 287 286 302 309 309 317 328 332 332 336 340 352 347 339 327 318 310 309 312 313 322 318 313 311 308 302 298 299 298
201 233 230 243 272 298 318 338 338 333 333 333 332 332 329 322 315 314 315 315 317 328 334 327 325 326 328 322 316 313 311 312 314 313 300 294 296 297 296 296 294 287 284 282
95 333 30 1 344 337 335 333 319 314 317 314 314 319 321 323 326 326 324 323 325 327 323 319 317 314 313 309 304 302 300 297 295 293 291 283 282 281 284 283 283 284 282 277